Rock Falls, IL

1:45 PM CST on December 05, 2016 (GMT -0600)
Whiteside County-Bittorf

Weather History for KSQI - August, 2014

Change the Weather History Date:

Monday, August 11, 2014

  Actual Average Record
Temperature  
Mean Temperature 75 °F -  
Max Temperature 84 °F 78 °F 89 °F (2002)
Min Temperature 66 °F 58 °F 48 °F (2004)
Cooling Degree Days 10    
Growing Degree Days 25 (Base 50)    
Moisture  
Dew Point 64 °F    
Average Humidity 74    
Maximum Humidity 94    
Minimum Humidity 54    
Precipitation  
Precipitation 0.02 in - - ()
Sea Level Pressure  
Sea Level Pressure 29.90 in    
Wind  
Wind Speed 5 mph (NW)    
Max Wind Speed 20 mph    
Max Gust Speed 28 mph    
Visibility 9 miles    
Events      
Averages and records for this station are not official NWS values.
T = Trace of Precipitation, MM = Missing Value Source: NWS Daily Summary

Daily Weather History Graph

Daily Weather History Graph

Search for Another Location

Airport or City:

Trip Planner

Search our weather history database for the weather conditions in past years. The results will help you decide how hot, cold, wet, or windy it might be!

Date:

Astronomy

Aug. 11, 2014 Rise Set
Actual Time 6:02 AM CDT 8:04 PM CDT
Civil Twilight 5:32 AM CDT 8:34 PM CDT
Nautical Twilight 4:55 AM CDT 9:11 PM CDT
Astronomical Twilight 4:14 AM CDT 9:51 PM CDT
Moon 8:30 PM CDT (8/11) 7:09 AM CDT (8/11)
Length of Visible Light 15h 01m
Length of Day
14h 01m
Full, 99% of the Moon is Illuminated
Aug 11
Full
Aug 17
Last Quarter
Aug 25
New
Sep 2
First Quarter
Sep 8
Full

Hourly Weather History & Observations

Time (CDT) Temp. Heat Index Dew Point Humidity Pressure Visibility Wind Dir Wind Speed Gust Speed Precip Events Conditions
12:15 AM 69.8 °F - 64.4 °F 83% 29.98 in 8.0 mi Calm Calm - N/A   Mostly Cloudy
12:35 AM 69.8 °F - 64.4 °F 83% 29.98 in 10.0 mi North 3.5 mph - N/A   Mostly Cloudy
12:55 AM 69.8 °F - 64.4 °F 83% 29.98 in 10.0 mi Calm Calm - 0.01 in   Partly Cloudy
1:15 AM 69.8 °F - 64.4 °F 83% 29.97 in 10.0 mi Calm Calm - N/A   Clear
1:35 AM 68.0 °F - 64.4 °F 88% 29.96 in 7.0 mi Calm Calm - N/A   Scattered Clouds
1:55 AM 68.0 °F - 64.4 °F 88% 29.95 in 8.0 mi Calm Calm - N/A   Partly Cloudy
2:15 AM 68.0 °F - 64.4 °F 88% 29.94 in 8.0 mi Calm Calm - N/A   Partly Cloudy
2:35 AM 68.0 °F - 64.4 °F 88% 29.94 in 6.0 mi Calm Calm - N/A   Clear
2:55 AM 68.0 °F - 64.4 °F 88% 29.94 in 7.0 mi Calm Calm - N/A   Clear
3:15 AM 68.0 °F - 64.4 °F 88% 29.94 in 5.0 mi Calm Calm - N/A   Clear
3:35 AM 66.2 °F - 64.4 °F 94% 29.94 in 9.0 mi Calm Calm - N/A   Clear
3:55 AM 66.2 °F - 64.4 °F 94% 29.95 in 7.0 mi Calm Calm - N/A   Clear
4:15 AM 66.2 °F - 64.4 °F 94% 29.94 in 7.0 mi Calm Calm - 0.01 in   Partly Cloudy
4:35 AM 66.2 °F - 64.4 °F 94% 29.94 in 7.0 mi NNE 3.5 mph - 0.01 in   Partly Cloudy
4:55 AM 66.2 °F - 64.4 °F 94% 29.94 in 8.0 mi Calm Calm - 0.01 in   Clear
5:15 AM 66.2 °F - 62.6 °F 88% 29.94 in 7.0 mi Calm Calm - N/A   Partly Cloudy
5:35 AM 66.2 °F - 62.6 °F 88% 29.94 in 7.0 mi North 3.5 mph - N/A   Clear
5:55 AM 66.2 °F - 62.6 °F 88% 29.94 in 4.0 mi Calm Calm - N/A   Clear
6:15 AM 66.2 °F - 62.6 °F 88% 29.94 in 3.0 mi North 3.5 mph - N/A   Clear
6:35 AM 66.2 °F - 62.6 °F 88% 29.94 in 4.0 mi North 3.5 mph - N/A   Partly Cloudy
6:55 AM 66.2 °F - 62.6 °F 88% 29.94 in 3.0 mi Calm Calm - N/A   Clear
7:15 AM 66.2 °F - 62.6 °F 88% 29.93 in 3.0 mi Calm Calm - N/A   Clear
7:35 AM 66.2 °F - 62.6 °F 88% 29.93 in 3.0 mi NW 3.5 mph - N/A   Clear
7:55 AM 68.0 °F - 64.4 °F 88% 29.93 in 3.0 mi NW 3.5 mph - N/A   Clear
8:15 AM 71.6 °F - 64.4 °F 78% 29.93 in 5.0 mi NW 4.6 mph - N/A   Scattered Clouds
8:35 AM 71.6 °F - 64.4 °F 78% 29.93 in 5.0 mi WNW 4.6 mph - N/A   Clear
8:55 AM 73.4 °F - 64.4 °F 73% 29.93 in 9.0 mi NW 5.8 mph - N/A   Clear
9:15 AM 75.2 °F - 66.2 °F 73% 29.92 in 10.0 mi NW 4.6 mph - N/A   Clear
9:35 AM 77.0 °F - 64.4 °F 65% 29.91 in 10.0 mi NW 6.9 mph - N/A   Clear
9:55 AM 78.8 °F - 66.2 °F 65% 29.91 in 10.0 mi WNW 6.9 mph - N/A   Clear
10:15 AM 78.8 °F - 66.2 °F 65% 29.91 in 10.0 mi WNW 9.2 mph - N/A   Clear
10:35 AM 78.8 °F - 64.4 °F 61% 29.91 in 10.0 mi WNW 5.8 mph - N/A   Clear
10:55 AM 80.6 °F 82.7 °F 66.2 °F 61% 29.91 in 10.0 mi NW 9.2 mph - N/A   Clear
11:15 AM 80.6 °F 82.7 °F 66.2 °F 61% 29.90 in 10.0 mi WNW 10.4 mph - N/A   Clear
11:35 AM 80.6 °F 82.7 °F 66.2 °F 61% 29.90 in 10.0 mi NW 10.4 mph - N/A   Partly Cloudy
11:55 AM 82.4 °F 83.9 °F 64.4 °F 54% 29.90 in 10.0 mi NNW 10.4 mph - N/A   Clear
12:15 PM 80.6 °F 82.3 °F 64.4 °F 58% 29.90 in 10.0 mi NW 11.5 mph - N/A   Clear
12:35 PM 82.4 °F 84.6 °F 66.2 °F 58% 29.90 in 10.0 mi WNW 11.5 mph - N/A   Clear
12:55 PM 82.4 °F 84.6 °F 66.2 °F 58% 29.89 in 10.0 mi NNW 11.5 mph - N/A   Clear
1:15 PM 82.4 °F 84.6 °F 66.2 °F 58% 29.89 in 10.0 mi NNW 11.5 mph 18.4 mph N/A   Partly Cloudy
1:35 PM 82.4 °F 84.6 °F 66.2 °F 58% 29.89 in 10.0 mi WNW 10.4 mph - N/A   Mostly Cloudy
1:55 PM 84.2 °F 86.6 °F 66.2 °F 55% 29.89 in 10.0 mi WNW 11.5 mph - N/A   Mostly Cloudy
2:15 PM 82.4 °F 85.4 °F 68.0 °F 62% 29.88 in 10.0 mi WNW 9.2 mph - N/A   Mostly Cloudy
2:35 PM 80.6 °F 82.7 °F 66.2 °F 61% 29.87 in 10.0 mi WNW 6.9 mph - N/A   Mostly Cloudy
2:55 PM 80.6 °F 83.2 °F 68.0 °F 65% 29.86 in 10.0 mi NW 10.4 mph - N/A   Overcast
3:15 PM 80.6 °F 84.6 °F 71.6 °F 74% 29.86 in 9.0 mi NW 16.1 mph 23.0 mph N/A   Mostly Cloudy
3:35 PM 77.0 °F - 69.8 °F 78% 29.86 in 10.0 mi NW 6.9 mph - N/A   Overcast
3:55 PM 82.4 °F 86.3 °F 69.8 °F 66% 29.86 in 10.0 mi NW 13.8 mph 20.7 mph N/A   Mostly Cloudy
4:15 PM 80.6 °F 82.7 °F 66.2 °F 61% 29.85 in 10.0 mi NW 17.3 mph 21.9 mph N/A   Partly Cloudy
4:35 PM 80.6 °F 83.2 °F 68.0 °F 65% 29.85 in 10.0 mi WNW 19.6 mph - N/A   Partly Cloudy
4:55 PM 80.6 °F 82.7 °F 66.2 °F 61% 29.84 in 10.0 mi WNW 18.4 mph 23.0 mph N/A   Scattered Clouds
5:35 PM 78.8 °F - 66.2 °F 65% 29.84 in 10.0 mi NNW 19.6 mph 27.6 mph N/A   Clear
5:55 PM 78.8 °F - 64.4 °F 61% 29.84 in 10.0 mi NNW 18.4 mph 24.2 mph N/A   Clear
6:15 PM 78.8 °F - 64.4 °F 61% 29.84 in 10.0 mi NW 16.1 mph - N/A   Clear
6:35 PM 77.0 °F - 64.4 °F 65% 29.84 in 10.0 mi NNW 16.1 mph 25.3 mph N/A   Clear
6:55 PM 75.2 °F - 64.4 °F 69% 29.84 in 10.0 mi NW 15.0 mph 25.3 mph N/A   Clear
7:15 PM 73.4 °F - 62.6 °F 69% 29.85 in 10.0 mi NNW 15.0 mph 20.7 mph N/A   Clear
7:35 PM 71.6 °F - 62.6 °F 73% 29.86 in 10.0 mi NNW 16.1 mph 25.3 mph N/A   Clear
7:55 PM 69.8 °F - 60.8 °F 73% 29.86 in 10.0 mi NNW 13.8 mph 17.3 mph N/A   Clear
8:15 PM 69.8 °F - 60.8 °F 73% 29.86 in 10.0 mi NNW 16.1 mph 21.9 mph N/A   Partly Cloudy
8:35 PM 69.8 °F - 60.8 °F 73% 29.86 in 10.0 mi NNW 12.7 mph - N/A   Mostly Cloudy
8:55 PM 69.8 °F - 59.0 °F 68% 29.87 in 10.0 mi NNW 16.1 mph 23.0 mph N/A   Overcast
9:15 PM 68.0 °F - 57.2 °F 68% 29.88 in 10.0 mi NNW 12.7 mph 17.3 mph N/A   Overcast
9:35 PM 68.0 °F - 57.2 °F 68% 29.88 in 10.0 mi NNW 12.7 mph 20.7 mph N/A   Overcast
9:55 PM 68.0 °F - 57.2 °F 68% 29.88 in 10.0 mi NNW 13.8 mph 24.2 mph N/A   Overcast
10:15 PM 66.2 °F - 57.2 °F 73% 29.88 in 10.0 mi NNW 16.1 mph 24.2 mph N/A   Overcast
10:35 PM 66.2 °F - 57.2 °F 73% 29.88 in 10.0 mi NNW 10.4 mph 23.0 mph N/A   Overcast
10:55 PM 66.2 °F - 57.2 °F 73% 29.88 in 10.0 mi North 12.7 mph 20.7 mph N/A   Overcast
11:15 PM 66.2 °F - 57.2 °F 73% 29.88 in 10.0 mi NNW 16.1 mph 20.7 mph N/A   Overcast
11:35 PM 66.2 °F - 57.2 °F 73% 29.88 in 10.0 mi North 15.0 mph 21.9 mph N/A   Overcast
11:55 PM 66.2 °F - 57.2 °F 73% 29.88 in 10.0 mi North 10.4 mph 23.0 mph N/A   Overcast